Private Wetterstation Wechselburg
Wetterdaten: Freitag, 03.02.2023
Datum Zeit Temp. +2m Bodentemp. Temp.+5cm Temp. Wind Windchill X Diff Temp. Feuchte +2m Feuchte +5cm Luftdruck Regen Wind Richtung Richtung Sonnenschein Taupunkt Windchill Windben
03.02.2023 00:00 2,5 C 5,9 C 24,2 C 2,4 C 2,2 C 0,0 C 88 % 99 % 1024,1 hPa 0,0 l/m 1,9 km/h (1 Bft) S-SW 202 0 min 0,7 C 2,2 C 2,9 km/h (1 Bft)
03.02.2023 00:05 2,5 C 5,9 C 24,2 C 2,4 C 2,2 C 0,0 C 88 % 99 % 1024,1 hPa 0,0 l/m 2,4 km/h (1 Bft) S 180 0 min 0,7 C 2,2 C 6,3 km/h (2 Bft)
03.02.2023 00:10 2,7 C 5,9 C 24,2 C 2,5 C 2,2 C 0,0 C 88 % 99 % 1024,1 hPa 0,0 l/m 2,3 km/h (1 Bft) NW 315 0 min 0,9 C 2,2 C 0,0 km/h (0 Bft)
03.02.2023 00:15 2,7 C 5,9 C 24,2 C 2,5 C 2,1 C 0,0 C 88 % 99 % 1024,1 hPa 0,0 l/m 1,8 km/h (1 Bft) SW 225 0 min 0,9 C 2,1 C 9,5 km/h (2 Bft)
03.02.2023 00:20 2,7 C 5,9 C 24,2 C 2,5 C 2,1 C 0,0 C 88 % 99 % 1024,1 hPa 0,0 l/m 1,8 km/h (1 Bft) SO 135 0 min 0,9 C 2,1 C 5,6 km/h (1 Bft)
03.02.2023 00:25 2,5 C 5,9 C 24,2 C 2,4 C 2,1 C 0,0 C 88 % 99 % 1023,8 hPa 0,0 l/m 2,3 km/h (1 Bft) N-NO 22 0 min 0,7 C 2,1 C 1,9 km/h (1 Bft)
03.02.2023 00:30 2,5 C 5,9 C 24,2 C 2,3 C 2,0 C 0,0 C 88 % 99 % 1023,8 hPa 0,0 l/m 1,9 km/h (1 Bft) O-NO 67 0 min 0,7 C 2,0 C 4,8 km/h (1 Bft)
03.02.2023 00:35 2,5 C 6,0 C 24,2 C 2,3 C 2,0 C 0,0 C 88 % 99 % 1023,8 hPa 0,0 l/m 0,8 km/h (0 Bft) S-SO 157 0 min 0,7 C 2,0 C 2,6 km/h (1 Bft)
03.02.2023 00:40 2,4 C 6,0 C 24,2 C 2,3 C 2,0 C 0,0 C 88 % 99 % 1023,8 hPa 0,0 l/m 0,8 km/h (0 Bft) O-SO 112 0 min 0,6 C 2,0 C 4,8 km/h (1 Bft)
03.02.2023 00:45 2,4 C 6,0 C 24,2 C 2,3 C 2,0 C 0,0 C 88 % 99 % 1023,9 hPa 0,7 l/m 1,6 km/h (1 Bft) S 180 0 min 0,6 C 2,0 C 7,9 km/h (2 Bft)
03.02.2023 00:50 2,5 C 6,0 C 24,2 C 2,3 C 1,9 C 0,0 C 88 % 99 % 1023,9 hPa 0,0 l/m 2,3 km/h (1 Bft) S 180 0 min 0,7 C 1,9 C 3,7 km/h (1 Bft)
03.02.2023 00:55 2,3 C 6,0 C 24,2 C 1,9 C 1,1 C 0,0 C 88 % 99 % 1023,9 hPa 0,0 l/m 3,7 km/h (1 Bft) S 180 0 min 0,5 C 1,1 C 13,4 km/h (3 Bft)
03.02.2023 01:00 2,3 C 6,0 C 24,2 C 2,1 C 1,6 C 0,0 C 88 % 99 % 1023,9 hPa 0,0 l/m 2,9 km/h (1 Bft) S 180 0 min 0,5 C 1,6 C 0,0 km/h (0 Bft)
03.02.2023 01:05 2,2 C 5,9 C 24,2 C 2,0 C 1,7 C 0,0 C 88 % 99 % 1023,9 hPa 0,0 l/m 1,8 km/h (1 Bft) O-SO 112 0 min 0,4 C 1,7 C 1,6 km/h (1 Bft)
03.02.2023 01:10 2,1 C 5,9 C 24,2 C 1,9 C 1,6 C 0,0 C 88 % 99 % 1023,9 hPa 0,0 l/m 1,1 km/h (1 Bft) SO 135 0 min 0,3 C 1,6 C 0,0 km/h (0 Bft)
03.02.2023 01:15 2,1 C 5,9 C 24,2 C 1,9 C 1,6 C 0,0 C 88 % 99 % 1023,9 hPa 0,0 l/m 0,8 km/h (0 Bft) S 180 0 min 0,3 C 1,6 C 0,0 km/h (0 Bft)
03.02.2023 01:20 2,0 C 5,9 C 24,2 C 1,9 C 1,6 C 0,0 C 88 % 99 % 1023,9 hPa 0,0 l/m 1,1 km/h (1 Bft) W-SW 247 0 min 0,2 C 1,6 C 2,4 km/h (1 Bft)
03.02.2023 01:25 2,1 C 5,9 C 24,2 C 1,9 C 1,6 C 0,0 C 88 % 99 % 1023,9 hPa 0,0 l/m 2,1 km/h (1 Bft) S-SW 202 0 min 0,3 C 1,6 C 13,7 km/h (3 Bft)
03.02.2023 01:30 1,9 C 5,9 C 24,2 C 1,7 C 1,4 C 0,0 C 88 % 99 % 1023,9 hPa 0,0 l/m 2,7 km/h (1 Bft) S-SO 157 0 min 0,1 C 1,4 C 0,0 km/h (0 Bft)
03.02.2023 01:35 1,9 C 5,9 C 24,2 C 1,7 C 1,4 C 0,0 C 88 % 99 % 1023,9 hPa 0,7 l/m 1,6 km/h (1 Bft) SW 225 0 min 0,1 C 1,4 C 3,2 km/h (1 Bft)
03.02.2023 01:40 1,9 C 5,9 C 24,2 C 1,7 C 1,4 C 0,0 C 88 % 99 % 1023,9 hPa 0,0 l/m 1,0 km/h (0 Bft) S-SO 157 0 min 0,1 C 1,4 C 5,0 km/h (1 Bft)
03.02.2023 01:45 1,7 C 5,9 C 24,2 C 1,6 C 1,3 C 0,0 C 88 % 99 % 1023,0 hPa 0,0 l/m 1,9 km/h (1 Bft) S-SW 202 0 min -0,1 C 1,3 C 1,9 km/h (1 Bft)
03.02.2023 01:50 1,7 C 5,9 C 24,2 C 1,5 C 1,2 C 0,0 C 88 % 99 % 1023,0 hPa 0,0 l/m 2,6 km/h (1 Bft) S 180 0 min -0,1 C 1,2 C 0,0 km/h (0 Bft)
03.02.2023 01:55 1,6 C 5,9 C 24,2 C 1,4 C 1,1 C 0,0 C 88 % 99 % 1023,0 hPa 0,0 l/m 2,7 km/h (1 Bft) S 180 0 min -0,2 C 1,1 C 3,2 km/h (1 Bft)
03.02.2023 02:00 1,6 C 5,9 C 24,2 C 1,4 C 1,1 C 0,0 C 88 % 99 % 1023,0 hPa 0,0 l/m 2,7 km/h (1 Bft) S-SO 157 0 min -0,2 C 1,1 C 6,0 km/h (2 Bft)
03.02.2023 02:05 1,7 C 5,9 C 24,2 C 1,4 C 0,9 C 0,0 C 88 % 99 % 1022,4 hPa 0,7 l/m 3,2 km/h (1 Bft) S 180 0 min -0,1 C 0,9 C 2,7 km/h (1 Bft)
03.02.2023 02:10 1,7 C 5,9 C 24,2 C 1,6 C 1,4 C 0,0 C 88 % 99 % 1022,4 hPa 0,0 l/m 2,3 km/h (1 Bft) S-SO 157 0 min -0,1 C 1,4 C 1,8 km/h (1 Bft)
03.02.2023 02:15 1,7 C 5,9 C 24,2 C 1,6 C 1,5 C 0,0 C 88 % 99 % 1022,4 hPa 0,0 l/m 1,1 km/h (1 Bft) SW 225 0 min -0,1 C 1,5 C 2,9 km/h (1 Bft)
03.02.2023 02:20 1,7 C 5,9 C 24,2 C 1,7 C 1,6 C 0,0 C 88 % 99 % 1022,4 hPa 0,0 l/m 1,0 km/h (0 Bft) S-SO 157 0 min -0,1 C 1,6 C 0,0 km/h (0 Bft)
03.02.2023 02:25 1,7 C 5,9 C 24,2 C 1,7 C 1,6 C 0,0 C 89 % 99 % 1021,7 hPa 0,0 l/m 0,5 km/h (0 Bft) W-SW 247 0 min 0,1 C 1,6 C 0,0 km/h (0 Bft)
03.02.2023 02:30 1,9 C 5,9 C 24,2 C 1,8 C 1,7 C 0,0 C 89 % 99 % 1021,7 hPa 0,0 l/m 0,5 km/h (0 Bft) SW 225 0 min 0,3 C 1,7 C 0,0 km/h (0 Bft)
03.02.2023 02:35 1,9 C 5,9 C 24,2 C 1,9 C 1,8 C 0,0 C 89 % 99 % 1021,7 hPa 0,7 l/m 0,8 km/h (0 Bft) S-SO 157 0 min 0,3 C 1,8 C 9,2 km/h (2 Bft)
03.02.2023 02:40 2,0 C 5,9 C 24,2 C 2,0 C 1,9 C 0,0 C 89 % 99 % 1021,7 hPa 0,0 l/m 0,8 km/h (0 Bft) S-SO 157 0 min 0,4 C 1,9 C 0,0 km/h (0 Bft)
03.02.2023 02:45 2,0 C 5,9 C 24,2 C 2,1 C 2,1 C 0,1 C 89 % 99 % 1021,7 hPa 0,0 l/m 1,1 km/h (1 Bft) S 180 0 min 0,4 C 2,1 C 3,9 km/h (1 Bft)
03.02.2023 02:50 2,1 C 5,9 C 24,2 C 2,2 C 2,2 C 0,1 C 89 % 99 % 1021,7 hPa 0,0 l/m 1,3 km/h (1 Bft) SW 225 0 min 0,5 C 2,2 C 3,7 km/h (1 Bft)
03.02.2023 02:55 2,3 C 5,9 C 24,2 C 2,3 C 2,3 C 0,0 C 89 % 99 % 1021,7 hPa 0,0 l/m 1,4 km/h (1 Bft) SW 225 0 min 0,7 C 2,3 C 2,7 km/h (1 Bft)
03.02.2023 03:00 2,3 C 5,9 C 24,2 C 2,4 C 2,4 C 0,1 C 89 % 99 % 1021,7 hPa 0,0 l/m 1,1 km/h (1 Bft) NW 315 0 min 0,7 C 2,4 C 0,0 km/h (0 Bft)
03.02.2023 03:05 2,4 C 5,9 C 24,2 C 2,5 C 2,5 C 0,1 C 89 % 99 % 1021,4 hPa 0,7 l/m 1,3 km/h (1 Bft) W-SW 247 0 min 0,8 C 2,5 C 3,2 km/h (1 Bft)
03.02.2023 03:10 2,4 C 5,9 C 24,2 C 2,7 C 2,7 C 0,3 C 89 % 99 % 1021,4 hPa 0,0 l/m 1,4 km/h (1 Bft) SW 225 0 min 0,8 C 2,7 C 4,2 km/h (1 Bft)
03.02.2023 03:15 2,6 C 5,9 C 24,2 C 2,6 C 2,6 C 0,0 C 89 % 99 % 1021,4 hPa 0,0 l/m 3,1 km/h (1 Bft) S-SO 157 0 min 1,0 C 2,6 C 3,4 km/h (1 Bft)
03.02.2023 03:20 2,7 C 5,9 C 24,2 C 2,6 C 2,3 C 0,0 C 89 % 99 % 1021,4 hPa 0,0 l/m 3,7 km/h (1 Bft) S 180 0 min 1,1 C 2,3 C 3,7 km/h (1 Bft)
03.02.2023 03:25 2,7 C 6,0 C 24,2 C 2,6 C 2,3 C 0,0 C 89 % 99 % 1020,8 hPa 0,0 l/m 4,0 km/h (1 Bft) S-SW 202 0 min 1,1 C 2,3 C 9,2 km/h (2 Bft)
03.02.2023 03:30 2,9 C 6,0 C 24,2 C 2,7 C 2,2 C 0,0 C 89 % 99 % 1020,8 hPa 0,7 l/m 4,7 km/h (1 Bft) S-SW 202 0 min 1,3 C 1,0 C 6,0 km/h (2 Bft)
03.02.2023 03:35 2,9 C 6,0 C 24,2 C 2,6 C 2,0 C 0,0 C 89 % 99 % 1020,8 hPa 0,0 l/m 5,3 km/h (1 Bft) SW 225 0 min 1,3 C 0,6 C 4,8 km/h (1 Bft)
03.02.2023 03:40 3,0 C 6,0 C 24,2 C 2,7 C 2,1 C 0,0 C 89 % 99 % 1020,8 hPa 0,0 l/m 5,3 km/h (1 Bft) S 180 0 min 1,4 C 0,7 C 7,6 km/h (2 Bft)
03.02.2023 03:45 3,1 C 6,0 C 24,2 C 2,8 C 2,3 C 0,0 C 89 % 99 % 1021,0 hPa 0,0 l/m 5,1 km/h (1 Bft) SW 225 0 min 1,5 C 1,0 C 5,0 km/h (1 Bft)
03.02.2023 03:50 3,2 C 6,0 C 24,2 C 2,9 C 2,4 C 0,0 C 89 % 99 % 1021,0 hPa 0,0 l/m 5,3 km/h (1 Bft) SW 225 0 min 1,6 C 1,0 C 7,4 km/h (2 Bft)
03.02.2023 03:55 3,3 C 6,0 C 24,2 C 3,1 C 2,8 C 0,0 C 89 % 99 % 1021,0 hPa 0,0 l/m 4,7 km/h (1 Bft) SW 225 0 min 1,7 C 1,7 C 4,2 km/h (1 Bft)
03.02.2023 04:00 3,2 C 6,0 C 24,2 C 3,1 C 2,8 C 0,0 C 89 % 99 % 1021,0 hPa 0,0 l/m 4,5 km/h (1 Bft) S-SW 202 0 min 1,6 C 2,8 C 4,5 km/h (1 Bft)
03.02.2023 04:05 3,3 C 6,0 C 24,2 C 3,0 C 2,4 C 0,0 C 89 % 99 % 1020,9 hPa 0,0 l/m 5,8 km/h (2 Bft) SW 225 0 min 1,7 C 0,8 C 16,6 km/h (3 Bft)
03.02.2023 04:10 3,4 C 6,0 C 24,2 C 3,1 C 2,5 C 0,0 C 89 % 99 % 1020,9 hPa 0,0 l/m 5,8 km/h (2 Bft) S 180 0 min 1,8 C 0,9 C 7,7 km/h (2 Bft)
03.02.2023 04:15 3,5 C 6,0 C 24,2 C 3,3 C 2,9 C 0,0 C 89 % 99 % 1020,9 hPa 0,0 l/m 4,7 km/h (1 Bft) S 180 0 min 1,9 C 1,8 C 11,4 km/h (2 Bft)
03.02.2023 04:20 3,4 C 6,0 C 24,2 C 3,3 C 3,1 C 0,0 C 89 % 99 % 1020,9 hPa 0,0 l/m 4,7 km/h (1 Bft) W-NW 292 0 min 1,8 C 2,1 C 2,3 km/h (1 Bft)
03.02.2023 04:25 3,5 C 6,0 C 24,2 C 3,3 C 2,9 C 0,0 C 89 % 99 % 1020,8 hPa 0,0 l/m 5,0 km/h (1 Bft) SO 135 0 min 1,9 C 1,7 C 3,1 km/h (1 Bft)
03.02.2023 04:30 3,6 C 6,0 C 24,2 C 3,4 C 3,1 C 0,0 C 89 % 99 % 1020,8 hPa 0,0 l/m 4,7 km/h (1 Bft) SW 225 0 min 2,0 C 2,1 C 10,6 km/h (2 Bft)
03.02.2023 04:35 3,6 C 6,0 C 24,2 C 3,4 C 3,1 C 0,0 C 89 % 99 % 1020,8 hPa 0,0 l/m 4,8 km/h (1 Bft) S-SO 157 0 min 2,0 C 2,0 C 8,9 km/h (2 Bft)
03.02.2023 04:40 3,6 C 6,0 C 24,2 C 3,4 C 3,1 C 0,0 C 89 % 99 % 1020,8 hPa 0,0 l/m 4,8 km/h (1 Bft) O-SO 112 0 min 2,0 C 2,0 C 3,2 km/h (1 Bft)
03.02.2023 04:45 3,7 C 6,0 C 24,2 C 3,5 C 3,2 C 0,0 C 89 % 99 % 1020,8 hPa 0,0 l/m 5,0 km/h (1 Bft) SW 225 0 min 2,1 C 2,0 C 9,5 km/h (2 Bft)
03.02.2023 04:50 3,7 C 6,0 C 24,2 C 3,5 C 3,1 C 0,0 C 89 % 99 % 1020,8 hPa 0,0 l/m 5,3 km/h (1 Bft) S 180 0 min 2,1 C 1,8 C 8,7 km/h (2 Bft)
03.02.2023 04:55 3,9 C 6,0 C 24,2 C 3,5 C 2,8 C 0,0 C 89 % 99 % 1020,8 hPa 0,0 l/m 6,3 km/h (2 Bft) S 180 0 min 2,3 C 1,1 C 18,3 km/h (3 Bft)
03.02.2023 05:00 3,9 C 6,0 C 24,2 C 3,5 C 2,8 C 0,0 C 89 % 99 % 1020,8 hPa 0,0 l/m 6,8 km/h (2 Bft) W-SW 247 0 min 2,3 C 0,9 C 5,5 km/h (1 Bft)
03.02.2023 05:05 3,9 C 6,0 C 24,2 C 3,6 C 2,9 C 0,0 C 89 % 99 % 1020,6 hPa 0,0 l/m 6,1 km/h (2 Bft) W 270 0 min 2,3 C 1,3 C 15,8 km/h (3 Bft)
03.02.2023 05:10 4,0 C 6,0 C 24,2 C 3,9 C 3,6 C 0,0 C 89 % 99 % 1020,6 hPa 0,0 l/m 4,8 km/h (1 Bft) W-NW 292 0 min 2,4 C 2,6 C 3,7 km/h (1 Bft)
03.02.2023 05:15 4,0 C 6,0 C 24,2 C 4,3 C 4,3 C 0,3 C 89 % 99 % 1020,6 hPa 0,0 l/m 3,4 km/h (1 Bft) O-NO 67 0 min 2,4 C 4,3 C 5,0 km/h (1 Bft)
03.02.2023 05:20 4,1 C 6,0 C 24,2 C 4,5 C 4,5 C 0,4 C 89 % 99 % 1020,6 hPa 0,0 l/m 2,1 km/h (1 Bft) S-SO 157 0 min 2,5 C 4,5 C 5,6 km/h (1 Bft)
03.02.2023 05:25 4,0 C 6,0 C 24,2 C 4,5 C 4,5 C 0,5 C 89 % 99 % 1019,0 hPa 0,0 l/m 2,3 km/h (1 Bft) O-SO 112 0 min 2,4 C 4,5 C 7,7 km/h (2 Bft)
03.02.2023 05:30 4,0 C 6,0 C 24,2 C 4,5 C 4,5 C 0,5 C 89 % 99 % 1019,0 hPa 0,0 l/m 2,7 km/h (1 Bft) SW 225 0 min 2,4 C 4,5 C 2,7 km/h (1 Bft)
03.02.2023 05:35 4,1 C 6,0 C 24,2 C 4,5 C 4,5 C 0,4 C 89 % 99 % 1019,0 hPa 0,0 l/m 2,4 km/h (1 Bft) SW 225 0 min 2,5 C 4,5 C 6,4 km/h (2 Bft)
03.02.2023 05:40 4,1 C 6,0 C 24,2 C 4,6 C 4,6 C 0,5 C 89 % 99 % 1019,0 hPa 0,0 l/m 3,1 km/h (1 Bft) SO 135 0 min 2,5 C 4,6 C 8,9 km/h (2 Bft)
03.02.2023 05:45 4,3 C 6,0 C 24,2 C 4,0 C 3,3 C 0,0 C 89 % 99 % 1020,1 hPa 0,0 l/m 5,8 km/h (2 Bft) SW 225 0 min 2,7 C 1,8 C 11,3 km/h (2 Bft)
03.02.2023 05:50 4,3 C 6,1 C 24,2 C 3,9 C 3,0 C 0,0 C 89 % 99 % 1020,1 hPa 0,7 l/m 7,2 km/h (2 Bft) SO 135 0 min 2,7 C 1,0 C 7,1 km/h (2 Bft)
03.02.2023 05:55 4,5 C 6,1 C 24,2 C 4,2 C 2,9 C 0,0 C 89 % 99 % 1020,1 hPa 0,0 l/m 7,9 km/h (2 Bft) N-NO 22 0 min 2,8 C 0,7 C 6,4 km/h (2 Bft)
03.02.2023 06:00 4,4 C 6,1 C 24,2 C 4,0 C 3,2 C 0,0 C 89 % 99 % 1020,1 hPa 0,0 l/m 7,2 km/h (2 Bft) SW 225 0 min 2,7 C 1,3 C 11,4 km/h (2 Bft)
03.02.2023 06:05 4,5 C 6,1 C 24,2 C 4,1 C 3,2 C 0,0 C 89 % 99 % 1020,1 hPa 0,0 l/m 7,7 km/h (2 Bft) SW 225 0 min 2,8 C 1,1 C 12,4 km/h (3 Bft)
03.02.2023 06:10 4,7 C 6,1 C 24,2 C 4,2 C 3,2 C 0,0 C 89 % 99 % 1020,1 hPa 0,0 l/m 8,2 km/h (2 Bft) SW 225 0 min 3,0 C 1,0 C 8,0 km/h (2 Bft)
03.02.2023 06:15 4,7 C 6,1 C 24,2 C 4,4 C 3,3 C 0,0 C 89 % 99 % 1020,1 hPa 0,0 l/m 8,5 km/h (2 Bft) SW 225 0 min 3,0 C 1,0 C 12,4 km/h (3 Bft)
03.02.2023 06:20 4,8 C 6,1 C 24,2 C 4,5 C 3,4 C 0,0 C 89 % 99 % 1020,1 hPa 0,0 l/m 8,0 km/h (2 Bft) S-SW 202 0 min 3,1 C 1,3 C 6,9 km/h (2 Bft)
03.02.2023 06:25 4,9 C 6,1 C 24,2 C 4,5 C 3,6 C 0,0 C 89 % 99 % 1020,1 hPa 0,0 l/m 7,6 km/h (2 Bft) S 180 0 min 3,2 C 1,6 C 9,5 km/h (2 Bft)
03.02.2023 06:30 4,9 C 6,1 C 24,2 C 4,5 C 3,6 C 0,0 C 89 % 99 % 1020,1 hPa 0,0 l/m 7,6 km/h (2 Bft) SW 225 0 min 3,2 C 1,6 C 11,1 km/h (2 Bft)
03.02.2023 06:35 5,1 C 6,1 C 24,2 C 4,6 C 3,6 C 0,0 C 89 % 99 % 1020,1 hPa 0,0 l/m 8,0 km/h (2 Bft) S-SW 202 0 min 3,4 C 1,5 C 9,2 km/h (2 Bft)
03.02.2023 06:40 5,1 C 6,1 C 24,2 C 4,6 C 3,7 C 0,0 C 89 % 99 % 1020,1 hPa 0,0 l/m 7,6 km/h (2 Bft) S 180 0 min 3,4 C 1,7 C 8,9 km/h (2 Bft)
03.02.2023 06:45 5,1 C 6,1 C 24,2 C 4,6 C 3,7 C 0,0 C 89 % 99 % 1019,2 hPa 0,0 l/m 7,4 km/h (2 Bft) SW 225 0 min 3,4 C 1,8 C 6,4 km/h (2 Bft)
03.02.2023 06:50 5,2 C 6,1 C 24,2 C 4,7 C 3,8 C 0,0 C 89 % 99 % 1019,2 hPa 0,0 l/m 7,2 km/h (2 Bft) SO 135 0 min 3,5 C 2,0 C 10,8 km/h (2 Bft)
03.02.2023 06:55 5,3 C 6,0 C 24,2 C 4,8 C 3,9 C 0,0 C 89 % 99 % 1019,2 hPa 0,0 l/m 7,2 km/h (2 Bft) S 180 0 min 3,6 C 2,1 C 9,2 km/h (2 Bft)
03.02.2023 07:00 5,3 C 6,0 C 24,2 C 4,8 C 3,8 C 0,0 C 89 % 99 % 1019,2 hPa 0,0 l/m 7,2 km/h (2 Bft) SW 225 0 min 3,6 C 2,0 C 11,9 km/h (2 Bft)
03.02.2023 07:05 5,3 C 6,0 C 24,2 C 4,8 C 3,8 C 0,0 C 89 % 99 % 1018,8 hPa 0,0 l/m 7,2 km/h (2 Bft) W-SW 247 0 min 3,6 C 2,0 C 10,8 km/h (2 Bft)
03.02.2023 07:10 5,3 C 6,0 C 24,2 C 5,0 C 3,7 C 0,0 C 89 % 99 % 1018,8 hPa 0,0 l/m 7,9 km/h (2 Bft) S 180 0 min 3,6 C 1,6 C 11,9 km/h (2 Bft)
03.02.2023 07:15 5,4 C 6,0 C 24,2 C 4,8 C 3,7 C 0,0 C 89 % 99 % 1018,8 hPa 0,0 l/m 8,0 km/h (2 Bft) W-SW 247 0 min 3,7 C 1,6 C 5,5 km/h (1 Bft)
03.02.2023 07:20 5,5 C 6,0 C 24,2 C 4,9 C 3,7 C 0,0 C 89 % 99 % 1018,8 hPa 0,0 l/m 8,2 km/h (2 Bft) W-SW 247 0 min 3,8 C 1,6 C 6,1 km/h (2 Bft)
03.02.2023 07:25 5,5 C 6,0 C 24,2 C 5,1 C 3,8 C 0,0 C 89 % 99 % 1019,0 hPa 0,0 l/m 7,7 km/h (2 Bft) W-SW 247 0 min 3,8 C 1,8 C 9,7 km/h (2 Bft)
03.02.2023 07:30 5,5 C 6,0 C 24,2 C 5,0 C 3,9 C 0,0 C 89 % 99 % 1019,0 hPa 0,0 l/m 7,2 km/h (2 Bft) S-SW 202 0 min 3,8 C 2,1 C 10,3 km/h (2 Bft)
03.02.2023 07:35 5,5 C 6,0 C 24,2 C 5,0 C 4,1 C 0,0 C 89 % 99 % 1019,0 hPa 0,0 l/m 7,1 km/h (2 Bft) W-SW 247 0 min 3,8 C 2,3 C 13,4 km/h (3 Bft)
03.02.2023 07:40 5,6 C 6,0 C 24,2 C 5,1 C 4,2 C 0,0 C 89 % 99 % 1019,0 hPa 0,0 l/m 6,8 km/h (2 Bft) SW 225 0 min 3,9 C 2,5 C 6,8 km/h (2 Bft)
03.02.2023 07:45 5,6 C 6,0 C 24,2 C 5,2 C 4,3 C 0,0 C 89 % 99 % 1019,0 hPa 0,0 l/m 7,1 km/h (2 Bft) SW 225 0 min 3,9 C 2,6 C 12,9 km/h (3 Bft)
03.02.2023 07:50 5,6 C 6,0 C 24,2 C 5,2 C 4,3 C 0,0 C 89 % 99 % 1019,0 hPa 0,0 l/m 7,4 km/h (2 Bft) S 180 0 min 3,9 C 2,5 C 9,3 km/h (2 Bft)
03.02.2023 07:55 5,8 C 5,9 C 24,2 C 5,5 C 4,4 C 0,0 C 89 % 99 % 1019,0 hPa 0,0 l/m 8,7 km/h (2 Bft) SW 225 0 min 4,1 C 2,2 C 9,8 km/h (2 Bft)
03.02.2023 08:00 5,9 C 5,9 C 24,2 C 5,6 C 4,2 C 0,0 C 89 % 99 % 1019,0 hPa 0,0 l/m 9,5 km/h (2 Bft) SW 225 0 min 4,2 C 1,8 C 15,8 km/h (3 Bft)
03.02.2023 08:05 5,9 C 6,0 C 24,2 C 5,6 C 4,4 C 0,0 C 89 % 99 % 1018,1 hPa 0,0 l/m 9,3 km/h (2 Bft) SO 135 0 min 4,2 C 2,1 C 23,7 km/h (4 Bft)
03.02.2023 08:10 5,9 C 5,9 C 24,2 C 5,6 C 4,6 C 0,0 C 89 % 99 % 1018,1 hPa 0,0 l/m 8,7 km/h (2 Bft) SW 225 0 min 4,2 C 2,5 C 6,3 km/h (2 Bft)
03.02.2023 08:15 6,0 C 5,9 C 24,2 C 5,8 C 4,9 C 0,0 C 88 % 99 % 1018,1 hPa 0,0 l/m 8,0 km/h (2 Bft) S-SO 157 0 min 4,2 C 3,0 C 13,7 km/h (3 Bft)
03.02.2023 08:20 6,0 C 5,9 C 24,2 C 5,7 C 5,2 C 0,0 C 88 % 99 % 1018,1 hPa 0,0 l/m 6,9 km/h (2 Bft) NW 315 0 min 4,2 C 3,7 C 8,4 km/h (2 Bft)
03.02.2023 08:25 6,0 C 5,9 C 24,2 C 5,6 C 4,9 C 0,0 C 88 % 99 % 1018,1 hPa 0,0 l/m 6,8 km/h (2 Bft) W-SW 247 0 min 4,2 C 3,4 C 6,4 km/h (2 Bft)
03.02.2023 08:30 6,0 C 5,9 C 24,2 C 5,6 C 4,7 C 0,0 C 88 % 99 % 1018,1 hPa 0,0 l/m 7,2 km/h (2 Bft) W 270 0 min 4,2 C 3,0 C 13,4 km/h (3 Bft)
03.02.2023 08:35 6,0 C 5,9 C 24,2 C 5,4 C 4,3 C 0,0 C 88 % 99 % 1018,1 hPa 0,0 l/m 7,4 km/h (2 Bft) N-NO 22 0 min 4,2 C 2,5 C 14,2 km/h (3 Bft)
03.02.2023 08:40 6,0 C 5,9 C 24,2 C 5,4 C 4,3 C 0,0 C 88 % 99 % 1018,1 hPa 0,0 l/m 7,4 km/h (2 Bft) SW 225 0 min 4,2 C 2,5 C 8,9 km/h (2 Bft)
03.02.2023 08:45 6,0 C 5,9 C 24,2 C 5,5 C 4,4 C 0,0 C 88 % 99 % 1017,4 hPa 0,0 l/m 6,4 km/h (2 Bft) W-SW 247 0 min 4,2 C 2,9 C 8,2 km/h (2 Bft)
03.02.2023 08:50 6,1 C 5,9 C 24,2 C 5,5 C 4,2 C 0,0 C 88 % 99 % 1017,4 hPa 0,0 l/m 7,4 km/h (2 Bft) SW 225 0 min 4,3 C 2,4 C 12,7 km/h (3 Bft)
03.02.2023 08:55 6,0 C 5,9 C 24,2 C 5,6 C 3,9 C 0,0 C 88 % 99 % 1017,4 hPa 0,0 l/m 9,0 km/h (2 Bft) SW 225 0 min 4,2 C 1,6 C 18,2 km/h (3 Bft)
03.02.2023 09:00 6,1 C 5,9 C 24,2 C 5,4 C 3,9 C 0,0 C 88 % 99 % 1017,4 hPa 0,0 l/m 9,5 km/h (2 Bft) S-SW 202 0 min 4,3 C 1,5 C 14,5 km/h (3 Bft)
03.02.2023 09:05 6,1 C 5,9 C 24,2 C 5,7 C 4,2 C 0,0 C 87 % 99 % 1017,6 hPa 0,0 l/m 9,7 km/h (2 Bft) SW 225 0 min 4,1 C 1,8 C 14,8 km/h (3 Bft)
03.02.2023 09:10 6,2 C 5,9 C 24,2 C 5,8 C 4,5 C 0,0 C 87 % 99 % 1017,6 hPa 0,0 l/m 9,2 km/h (2 Bft) S 180 0 min 4,2 C 2,2 C 11,1 km/h (2 Bft)
03.02.2023 09:15 6,2 C 5,9 C 24,2 C 5,6 C 4,5 C 0,0 C 87 % 99 % 1017,6 hPa 0,0 l/m 9,2 km/h (2 Bft) SW 225 0 min 4,2 C 2,2 C 11,1 km/h (2 Bft)
03.02.2023 09:20 6,3 C 5,9 C 24,2 C 5,9 C 4,4 C 0,0 C 87 % 99 % 1017,6 hPa 0,0 l/m 8,9 km/h (2 Bft) S 180 0 min 4,3 C 2,2 C 12,4 km/h (3 Bft)
03.02.2023 09:25 6,3 C 5,9 C 24,2 C 5,9 C 4,7 C 0,0 C 87 % 99 % 1017,6 hPa 0,0 l/m 8,7 km/h (2 Bft) S-SO 157 0 min 4,3 C 2,6 C 8,0 km/h (2 Bft)
03.02.2023 09:30 6,3 C 5,9 C 24,2 C 6,0 C 4,6 C 0,0 C 87 % 99 % 1017,6 hPa 0,0 l/m 9,8 km/h (2 Bft) W-SW 247 0 min 4,3 C 2,2 C 15,6 km/h (3 Bft)
03.02.2023 09:35 6,4 C 5,9 C 24,2 C 6,1 C 4,9 C 0,0 C 87 % 99 % 1017,6 hPa 0,0 l/m 9,3 km/h (2 Bft) N-NO 22 0 min 4,4 C 2,7 C 11,6 km/h (2 Bft)
03.02.2023 09:40 6,4 C 5,9 C 24,2 C 6,2 C 5,3 C 0,0 C 87 % 99 % 1017,6 hPa 0,0 l/m 7,9 km/h (2 Bft) SW 225 0 min 4,4 C 3,5 C 10,3 km/h (2 Bft)
03.02.2023 09:45 6,4 C 5,9 C 24,2 C 6,2 C 5,4 C 0,0 C 86 % 99 % 1017,0 hPa 0,0 l/m 8,5 km/h (2 Bft) W-SW 247 0 min 4,2 C 3,5 C 12,7 km/h (3 Bft)
03.02.2023 09:50 6,5 C 5,9 C 24,2 C 6,3 C 5,3 C 0,0 C 86 % 99 % 1017,0 hPa 0,0 l/m 9,5 km/h (2 Bft) SW 225 0 min 4,3 C 3,1 C 9,8 km/h (2 Bft)
03.02.2023 09:55 6,5 C 5,9 C 24,2 C 6,1 C 5,3 C 0,0 C 86 % 99 % 1017,0 hPa 0,0 l/m 10,0 km/h (2 Bft) S 180 0 min 4,3 C 3,0 C 13,4 km/h (3 Bft)
03.02.2023 10:00 6,7 C 5,9 C 24,2 C 6,5 C 5,4 C 0,0 C 86 % 99 % 1017,0 hPa 0,0 l/m 9,5 km/h (2 Bft) SW 225 0 min 4,5 C 3,2 C 10,8 km/h (2 Bft)
03.02.2023 10:05 6,7 C 5,9 C 24,2 C 6,5 C 5,5 C 0,0 C 85 % 99 % 1017,0 hPa 0,0 l/m 9,5 km/h (2 Bft) SW 225 0 min 4,4 C 3,4 C 14,0 km/h (3 Bft)
03.02.2023 10:10 6,7 C 5,9 C 24,2 C 6,3 C 5,5 C 0,0 C 85 % 99 % 1017,0 hPa 0,0 l/m 10,1 km/h (2 Bft) SW 225 0 min 4,4 C 3,2 C 11,4 km/h (2 Bft)
03.02.2023 10:15 6,8 C 5,9 C 24,2 C 6,6 C 5,3 C 0,0 C 85 % 99 % 1017,0 hPa 0,0 l/m 12,1 km/h (2 Bft) W-SW 247 0 min 4,5 C 2,6 C 20,8 km/h (4 Bft)
03.02.2023 10:20 6,8 C 5,9 C 24,2 C 6,6 C 5,6 C 0,0 C 85 % 99 % 1017,0 hPa 0,0 l/m 11,3 km/h (2 Bft) S 180 0 min 4,5 C 3,1 C 13,5 km/h (3 Bft)
03.02.2023 10:25 6,9 C 5,9 C 24,2 C 6,7 C 5,7 C 0,0 C 84 % 99 % 1016,6 hPa 0,0 l/m 10,5 km/h (2 Bft) S 180 0 min 4,4 C 3,4 C 20,8 km/h (4 Bft)
03.02.2023 10:30 6,9 C 5,9 C 24,2 C 6,7 C 5,8 C 0,0 C 84 % 99 % 1016,6 hPa 0,0 l/m 9,8 km/h (2 Bft) W-SW 247 0 min 4,4 C 3,7 C 11,4 km/h (2 Bft)
03.02.2023 10:35 6,9 C 5,9 C 24,2 C 6,8 C 6,0 C 0,0 C 84 % 99 % 1016,6 hPa 0,0 l/m 9,0 km/h (2 Bft) W-SW 247 0 min 4,4 C 4,1 C 9,7 km/h (2 Bft)
03.02.2023 10:40 7,1 C 5,9 C 24,2 C 6,9 C 6,2 C 0,0 C 84 % 99 % 1016,6 hPa 0,0 l/m 8,4 km/h (2 Bft) W 270 0 min 4,6 C 4,4 C 9,7 km/h (2 Bft)
03.02.2023 10:45 7,0 C 5,9 C 24,2 C 6,9 C 6,1 C 0,0 C 84 % 99 % 1016,6 hPa 0,0 l/m 9,2 km/h (2 Bft) W 270 0 min 4,5 C 4,1 C 16,6 km/h (3 Bft)
03.02.2023 10:50 7,1 C 5,9 C 24,2 C 6,9 C 5,9 C 0,0 C 83 % 99 % 1016,6 hPa 0,0 l/m 10,0 km/h (2 Bft) SW 225 0 min 4,4 C 3,7 C 18,2 km/h (3 Bft)
03.02.2023 10:55 7,2 C 5,9 C 24,2 C 7,0 C 5,8 C 0,0 C 83 % 99 % 1016,6 hPa 0,0 l/m 10,6 km/h (2 Bft) S 180 0 min 4,5 C 3,5 C 10,8 km/h (2 Bft)
03.02.2023 11:00 7,2 C 5,9 C 24,2 C 7,0 C 5,7 C 0,0 C 83 % 99 % 1016,6 hPa 0,0 l/m 12,2 km/h (2 Bft) W-SW 247 0 min 4,5 C 3,1 C 19,3 km/h (3 Bft)
03.02.2023 11:05 7,4 C 5,9 C 24,2 C 7,1 C 5,6 C 0,0 C 83 % 99 % 1016,6 hPa 0,0 l/m 13,5 km/h (3 Bft) S 180 0 min 4,7 C 2,7 C 30,3 km/h (5 Bft)
03.02.2023 11:10 7,5 C 5,9 C 24,2 C 7,1 C 5,7 C 0,0 C 82 % 99 % 1016,6 hPa 0,0 l/m 12,9 km/h (3 Bft) S-SW 202 0 min 4,6 C 2,9 C 17,7 km/h (3 Bft)
03.02.2023 11:15 7,5 C 6,0 C 24,2 C 7,2 C 5,8 C 0,0 C 82 % 99 % 1016,6 hPa 0,0 l/m 13,2 km/h (3 Bft) S 180 0 min 4,6 C 3,0 C 19,3 km/h (3 Bft)
03.02.2023 11:20 7,5 C 6,0 C 24,2 C 6,9 C 5,8 C 0,0 C 81 % 99 % 1016,6 hPa 0,0 l/m 14,2 km/h (3 Bft) S 180 0 min 4,5 C 2,9 C 13,8 km/h (3 Bft)
03.02.2023 11:25 7,7 C 6,0 C 24,2 C 7,4 C 6,0 C 0,0 C 81 % 99 % 1015,8 hPa 0,0 l/m 12,9 km/h (3 Bft) SW 225 0 min 4,7 C 3,3 C 12,1 km/h (2 Bft)
03.02.2023 11:30 7,6 C 6,0 C 24,2 C 7,3 C 6,1 C 0,0 C 81 % 99 % 1015,8 hPa 0,0 l/m 12,6 km/h (3 Bft) SW 225 0 min 4,6 C 3,5 C 21,4 km/h (4 Bft)
03.02.2023 11:35 7,7 C 6,0 C 24,2 C 7,4 C 5,9 C 0,0 C 81 % 99 % 1015,8 hPa 0,0 l/m 14,0 km/h (3 Bft) S-SW 202 0 min 4,7 C 3,0 C 12,6 km/h (3 Bft)
03.02.2023 11:40 7,7 C 6,0 C 24,2 C 7,3 C 5,8 C 0,0 C 81 % 99 % 1015,8 hPa 0,0 l/m 14,5 km/h (3 Bft) S-SW 202 0 min 4,7 C 2,8 C 14,8 km/h (3 Bft)
03.02.2023 11:45 7,7 C 6,0 C 24,2 C 7,3 C 5,9 C 0,0 C 81 % 99 % 1015,8 hPa 0,0 l/m 13,8 km/h (3 Bft) S 180 0 min 4,7 C 3,0 C 14,3 km/h (3 Bft)
03.02.2023 11:50 7,7 C 6,0 C 24,2 C 7,4 C 6,0 C 0,0 C 81 % 99 % 1015,8 hPa 0,0 l/m 13,0 km/h (3 Bft) S 180 0 min 4,7 C 3,3 C 17,9 km/h (3 Bft)
03.02.2023 11:55 7,6 C 6,0 C 24,2 C 7,3 C 5,9 C 0,0 C 81 % 99 % 1015,8 hPa 0,0 l/m 12,9 km/h (3 Bft) S 180 0 min 4,6 C 3,2 C 17,5 km/h (3 Bft)
03.02.2023 12:00 7,6 C 6,1 C 24,2 C 7,2 C 5,6 C 0,0 C 81 % 99 % 1015,8 hPa 0,0 l/m 13,5 km/h (3 Bft) S 180 0 min 4,6 C 2,7 C 15,4 km/h (3 Bft)
03.02.2023 12:05 7,6 C 6,1 C 24,2 C 7,2 C 5,4 C 0,0 C 82 % 99 % 1015,8 hPa 0,0 l/m 13,8 km/h (3 Bft) SW 225 0 min 4,7 C 2,4 C 16,6 km/h (3 Bft)
03.02.2023 12:10 7,6 C 6,1 C 24,2 C 6,9 C 5,4 C 0,0 C 82 % 99 % 1015,8 hPa 0,0 l/m 13,8 km/h (3 Bft) SW 225 0 min 4,7 C 2,4 C 16,6 km/h (3 Bft)
03.02.2023 12:15 7,6 C 6,1 C 24,2 C 7,1 C 5,3 C 0,0 C 83 % 99 % 1015,8 hPa 0,0 l/m 13,7 km/h (3 Bft) S-SW 202 0 min 4,9 C 2,3 C 14,2 km/h (3 Bft)
03.02.2023 12:20 7,5 C 6,1 C 24,2 C 7,0 C 5,2 C 0,0 C 83 % 99 % 1015,8 hPa 0,0 l/m 14,6 km/h (3 Bft) SW 225 0 min 4,8 C 2,1 C 21,9 km/h (4 Bft)
03.02.2023 12:25 7,5 C 6,1 C 24,2 C 6,7 C 5,2 C 0,0 C 84 % 99 % 1016,1 hPa 0,0 l/m 13,0 km/h (3 Bft) SW 225 0 min 5,0 C 2,3 C 9,7 km/h (2 Bft)
03.02.2023 12:30 7,5 C 6,2 C 24,2 C 7,0 C 5,3 C 0,0 C 84 % 99 % 1016,1 hPa 0,0 l/m 12,4 km/h (3 Bft) SW 225 0 min 5,0 C 2,5 C 17,4 km/h (3 Bft)
03.02.2023 12:35 7,5 C 6,3 C 24,2 C 7,0 C 5,1 C 0,0 C 84 % 99 % 1016,1 hPa 0,0 l/m 13,4 km/h (3 Bft) W-SW 247 0 min 5,0 C 2,1 C 11,1 km/h (2 Bft)
03.02.2023 12:40 7,5 C 6,3 C 24,2 C 6,9 C 4,8 C 0,0 C 84 % 99 % 1016,1 hPa 0,0 l/m 12,9 km/h (3 Bft) S-SW 202 0 min 5,0 C 1,9 C 14,8 km/h (3 Bft)
03.02.2023 12:45 7,5 C 6,3 C 24,2 C 6,8 C 4,6 C 0,0 C 85 % 99 % 1015,2 hPa 0,0 l/m 14,2 km/h (3 Bft) SW 225 0 min 5,1 C 1,4 C 16,1 km/h (3 Bft)
03.02.2023 12:50 7,6 C 6,3 C 24,2 C 6,9 C 4,4 C 0,0 C 85 % 99 % 1015,2 hPa 0,0 l/m 15,1 km/h (3 Bft) W-SW 247 0 min 5,2 C 1,0 C 13,8 km/h (3 Bft)
03.02.2023 12:55 7,6 C 6,5 C 24,2 C 6,9 C 4,6 C 0,0 C 86 % 99 % 1015,2 hPa 0,0 l/m 14,5 km/h (3 Bft) SW 225 0 min 5,4 C 1,3 C 25,6 km/h (4 Bft)
03.02.2023 13:00 7,6 C 6,5 C 24,2 C 6,6 C 4,6 C 0,0 C 86 % 99 % 1015,2 hPa 0,0 l/m 13,8 km/h (3 Bft) W 270 0 min 5,4 C 1,5 C 14,3 km/h (3 Bft)
03.02.2023 13:05 7,6 C 6,5 C 24,2 C 6,9 C 4,4 C 0,0 C 86 % 99 % 1015,6 hPa 0,7 l/m 15,3 km/h (3 Bft) SW 225 0 min 5,4 C 1,0 C 24,3 km/h (4 Bft)
03.02.2023 13:10 7,6 C 6,6 C 24,2 C 6,9 C 4,5 C 0,0 C 86 % 99 % 1015,6 hPa 0,0 l/m 14,8 km/h (3 Bft) S-SW 202 0 min 5,4 C 1,2 C 24,6 km/h (4 Bft)
03.02.2023 13:15 7,5 C 6,6 C 24,2 C 6,8 C 4,7 C 0,0 C 86 % 99 % 1015,6 hPa 0,0 l/m 13,2 km/h (3 Bft) S 180 0 min 5,3 C 1,7 C 17,7 km/h (3 Bft)
03.02.2023 13:20 7,4 C 6,6 C 24,2 C 6,8 C 4,8 C 0,0 C 87 % 99 % 1015,6 hPa 0,0 l/m 12,6 km/h (3 Bft) S-SW 202 0 min 5,4 C 1,9 C 14,3 km/h (3 Bft)
03.02.2023 13:25 7,5 C 6,6 C 24,2 C 6,8 C 4,4 C 0,0 C 87 % 99 % 1015,6 hPa 0,0 l/m 14,3 km/h (3 Bft) W 270 0 min 5,5 C 1,1 C 13,2 km/h (3 Bft)
03.02.2023 13:30 7,5 C 6,6 C 24,2 C 6,5 C 4,4 C 0,0 C 87 % 99 % 1015,6 hPa 0,7 l/m 14,0 km/h (3 Bft) SW 225 0 min 5,5 C 1,2 C 16,9 km/h (3 Bft)
03.02.2023 13:35 7,5 C 6,6 C 24,2 C 6,8 C 4,8 C 0,0 C 87 % 99 % 1015,6 hPa 0,0 l/m 12,7 km/h (3 Bft) W-SW 247 0 min 5,5 C 1,9 C 21,6 km/h (4 Bft)
03.02.2023 13:40 7,5 C 6,8 C 24,2 C 6,8 C 4,6 C 0,0 C 88 % 99 % 1015,6 hPa 0,0 l/m 14,3 km/h (3 Bft) W-SW 247 0 min 5,6 C 1,4 C 22,7 km/h (4 Bft)
03.02.2023 13:45 7,5 C 6,8 C 24,2 C 6,8 C 4,3 C 0,0 C 88 % 99 % 1014,5 hPa 0,0 l/m 16,4 km/h (3 Bft) SW 225 0 min 5,6 C 0,7 C 29,1 km/h (5 Bft)
03.02.2023 13:50 7,5 C 6,8 C 24,2 C 6,8 C 4,5 C 0,0 C 88 % 99 % 1014,5 hPa 0,0 l/m 16,4 km/h (3 Bft) S-SW 202 0 min 5,6 C 0,9 C 16,3 km/h (3 Bft)
03.02.2023 13:55 7,5 C 6,8 C 24,2 C 6,9 C 4,7 C 0,0 C 88 % 99 % 1014,5 hPa 0,0 l/m 16,1 km/h (3 Bft) W-SW 247 0 min 5,6 C 1,2 C 16,6 km/h (3 Bft)
03.02.2023 14:00 7,5 C 6,8 C 24,2 C 6,6 C 4,7 C 0,0 C 88 % 99 % 1014,5 hPa 0,7 l/m 15,6 km/h (3 Bft) SW 225 0 min 5,6 C 1,3 C 21,6 km/h (4 Bft)
03.02.2023 14:05 7,4 C 6,8 C 24,2 C 6,6 C 5,0 C 0,0 C 88 % 99 % 1014,4 hPa 0,0 l/m 12,9 km/h (3 Bft) S-SW 202 0 min 5,5 C 2,1 C 14,6 km/h (3 Bft)
03.02.2023 14:10 7,3 C 6,8 C 24,2 C 6,8 C 4,9 C 0,0 C 88 % 99 % 1014,4 hPa 0,0 l/m 12,6 km/h (3 Bft) SW 225 0 min 5,4 C 2,0 C 15,8 km/h (3 Bft)
03.02.2023 14:15 7,3 C 6,8 C 24,2 C 6,8 C 5,0 C 0,0 C 88 % 99 % 1014,4 hPa 0,0 l/m 11,7 km/h (2 Bft) W 270 0 min 5,4 C 2,3 C 15,6 km/h (3 Bft)
03.02.2023 14:20 7,3 C 6,9 C 24,2 C 6,8 C 5,3 C 0,0 C 88 % 99 % 1015,5 hPa 0,0 l/m 10,1 km/h (2 Bft) W-SW 247 0 min 5,4 C 3,0 C 12,9 km/h (3 Bft)
03.02.2023 14:25 7,2 C 6,9 C 24,2 C 6,9 C 5,8 C 0,0 C 88 % 99 % 1015,5 hPa 0,0 l/m 8,5 km/h (2 Bft) W-SW 247 0 min 5,3 C 4,0 C 13,8 km/h (3 Bft)
03.02.2023 14:30 7,2 C 6,9 C 24,2 C 6,8 C 6,1 C 0,0 C 88 % 99 % 1015,5 hPa 0,0 l/m 7,4 km/h (2 Bft) S-SW 202 0 min 5,3 C 4,6 C 10,9 km/h (2 Bft)
03.02.2023 14:35 7,2 C 6,9 C 24,2 C 7,0 C 6,0 C 0,0 C 88 % 99 % 1015,5 hPa 0,0 l/m 8,2 km/h (2 Bft) W-SW 247 0 min 5,3 C 4,3 C 9,3 km/h (2 Bft)
03.02.2023 14:40 7,3 C 6,9 C 24,2 C 7,0 C 5,8 C 0,0 C 88 % 99 % 1015,5 hPa 0,0 l/m 9,8 km/h (2 Bft) SW 225 0 min 5,4 C 3,7 C 10,0 km/h (2 Bft)
03.02.2023 14:45 7,3 C 6,8 C 24,2 C 7,0 C 5,9 C 0,0 C 88 % 99 % 1015,5 hPa 0,0 l/m 9,8 km/h (2 Bft) W-SW 247 0 min 5,4 C 3,8 C 7,9 km/h (2 Bft)
03.02.2023 14:50 7,5 C 6,8 C 24,2 C 7,2 C 6,2 C 0,0 C 88 % 99 % 1015,5 hPa 0,0 l/m 10,0 km/h (2 Bft) S 180 0 min 5,6 C 4,1 C 20,0 km/h (4 Bft)
03.02.2023 14:55 7,5 C 6,6 C 24,2 C 7,3 C 6,5 C 0,0 C 88 % 99 % 1015,5 hPa 0,0 l/m 10,0 km/h (2 Bft) W-SW 247 0 min 5,6 C 4,5 C 30,3 km/h (5 Bft)
03.02.2023 15:00 7,5 C 6,6 C 24,2 C 7,4 C 6,7 C 0,0 C 88 % 99 % 1015,5 hPa 0,0 l/m 9,7 km/h (2 Bft) W 270 0 min 5,6 C 4,8 C 11,1 km/h (2 Bft)
03.02.2023 15:05 7,6 C 6,6 C 24,2 C 7,5 C 7,1 C 0,0 C 87 % 99 % 1015,5 hPa 0,0 l/m 8,7 km/h (2 Bft) N-NW 337 0 min 5,6 C 5,4 C 26,2 km/h (4 Bft)
03.02.2023 15:10 7,6 C 6,5 C 24,2 C 7,5 C 7,3 C 0,0 C 86 % 99 % 1015,5 hPa 0,0 l/m 7,4 km/h (2 Bft) O 90 0 min 5,4 C 6,0 C 13,8 km/h (3 Bft)
03.02.2023 15:15 7,5 C 6,5 C 24,2 C 7,4 C 7,3 C 0,0 C 86 % 99 % 1015,5 hPa 0,0 l/m 7,6 km/h (2 Bft) SW 225 0 min 5,3 C 5,9 C 13,8 km/h (3 Bft)
03.02.2023 15:20 7,6 C 6,5 C 24,2 C 7,7 C 7,2 C 0,1 C 85 % 99 % 1015,8 hPa 0,0 l/m 8,2 km/h (2 Bft) NW 315 0 min 5,2 C 5,7 C 7,1 km/h (2 Bft)
03.02.2023 15:25 7,6 C 6,5 C 24,2 C 7,5 C 7,3 C 0,0 C 84 % 99 % 1015,8 hPa 0,0 l/m 7,6 km/h (2 Bft) S-SW 202 0 min 5,1 C 5,9 C 7,9 km/h (2 Bft)
03.02.2023 15:30 7,6 C 6,5 C 24,2 C 7,8 C 7,8 C 0,2 C 83 % 99 % 1015,8 hPa 0,0 l/m 6,3 km/h (2 Bft) N-NW 337 0 min 4,9 C 6,9 C 4,8 km/h (1 Bft)
03.02.2023 15:35 7,7 C 6,5 C 24,2 C 7,7 C 7,6 C 0,0 C 83 % 99 % 1015,8 hPa 0,0 l/m 6,6 km/h (2 Bft) SW 225 0 min 5,0 C 6,5 C 9,7 km/h (2 Bft)
03.02.2023 15:40 7,6 C 6,5 C 24,2 C 7,7 C 7,7 C 0,1 C 82 % 99 % 1015,6 hPa 0,0 l/m 5,6 km/h (1 Bft) NO 45 0 min 4,7 C 6,9 C 2,4 km/h (1 Bft)
03.02.2023 15:45 7,5 C 6,5 C 24,2 C 7,8 C 7,8 C 0,3 C 82 % 99 % 1015,6 hPa 0,0 l/m 4,8 km/h (1 Bft) S 180 0 min 4,6 C 7,3 C 4,5 km/h (1 Bft)
03.02.2023 15:50 7,5 C 6,5 C 24,2 C 7,9 C 7,9 C 0,4 C 82 % 99 % 1015,6 hPa 0,0 l/m 4,0 km/h (1 Bft) N-NW 337 0 min 4,6 C 7,9 C 8,2 km/h (2 Bft)
03.02.2023 15:55 7,4 C 6,5 C 24,2 C 8,0 C 8,0 C 0,6 C 82 % 99 % 1015,6 hPa 0,0 l/m 3,7 km/h (1 Bft) W-SW 247 0 min 4,5 C 8,0 C 6,9 km/h (2 Bft)
03.02.2023 16:00 7,4 C 6,6 C 24,2 C 7,5 C 7,5 C 0,1 C 82 % 99 % 1015,6 hPa 0,0 l/m 4,0 km/h (1 Bft) W-SW 247 0 min 4,5 C 7,5 C 7,6 km/h (2 Bft)
03.02.2023 16:05 7,4 C 6,5 C 24,2 C 7,5 C 7,5 C 0,1 C 81 % 99 % 1015,6 hPa 0,0 l/m 4,0 km/h (1 Bft) W 270 0 min 4,4 C 7,5 C 15,6 km/h (3 Bft)
03.02.2023 16:10 7,4 C 6,5 C 24,2 C 7,9 C 7,9 C 0,5 C 81 % 99 % 1015,6 hPa 0,0 l/m 3,4 km/h (1 Bft) W-SW 247 0 min 4,4 C 7,9 C 5,8 km/h (2 Bft)
03.02.2023 16:15 7,5 C 6,5 C 24,2 C 8,0 C 8,0 C 0,5 C 80 % 99 % 1015,6 hPa 0,0 l/m 3,1 km/h (1 Bft) SW 225 0 min 4,3 C 8,0 C 5,3 km/h (1 Bft)
03.02.2023 16:20 7,4 C 6,6 C 24,2 C 7,9 C 7,9 C 0,5 C 80 % 99 % 1016,2 hPa 0,0 l/m 3,4 km/h (1 Bft) W-SW 247 0 min 4,2 C 7,9 C 7,4 km/h (2 Bft)
03.02.2023 16:25 7,3 C 6,6 C 24,2 C 7,9 C 7,9 C 0,6 C 80 % 99 % 1016,2 hPa 0,0 l/m 3,4 km/h (1 Bft) SW 225 0 min 4,1 C 7,9 C 9,0 km/h (2 Bft)
03.02.2023 16:30 7,3 C 6,6 C 24,2 C 7,8 C 7,8 C 0,5 C 80 % 99 % 1016,2 hPa 0,0 l/m 3,4 km/h (1 Bft) SW 225 0 min 4,1 C 7,8 C 2,6 km/h (1 Bft)
03.02.2023 16:35 7,3 C 6,6 C 24,2 C 7,4 C 7,4 C 0,1 C 79 % 99 % 1016,2 hPa 0,0 l/m 4,2 km/h (1 Bft) O-SO 112 0 min 3,9 C 7,4 C 9,0 km/h (2 Bft)
03.02.2023 16:40 7,3 C 6,6 C 24,2 C 7,2 C 6,9 C 0,0 C 78 % 99 % 1016,2 hPa 0,0 l/m 5,8 km/h (2 Bft) NW 315 0 min 3,7 C 6,0 C 7,1 km/h (2 Bft)
03.02.2023 16:45 7,4 C 6,6 C 24,2 C 7,4 C 7,3 C 0,0 C 78 % 99 % 1016,2 hPa 0,0 l/m 4,5 km/h (1 Bft) S-SW 202 0 min 3,8 C 7,3 C 4,3 km/h (1 Bft)
03.02.2023 16:50 7,4 C 6,6 C 24,2 C 7,4 C 7,4 C 0,0 C 77 % 99 % 1016,2 hPa 0,0 l/m 4,2 km/h (1 Bft) NO 45 0 min 3,6 C 7,4 C 11,3 km/h (2 Bft)
03.02.2023 16:55 7,4 C 6,6 C 24,2 C 7,3 C 7,1 C 0,0 C 77 % 99 % 1016,2 hPa 0,0 l/m 5,0 km/h (1 Bft) W-SW 247 0 min 3,6 C 6,5 C 6,1 km/h (2 Bft)
03.02.2023 17:00 7,3 C 6,6 C 24,2 C 7,1 C 6,8 C 0,0 C 76 % 99 % 1016,2 hPa 0,0 l/m 5,3 km/h (1 Bft) W-SW 247 0 min 3,4 C 6,0 C 8,0 km/h (2 Bft)
03.02.2023 17:05 7,3 C 6,6 C 24,2 C 7,1 C 6,7 C 0,0 C 76 % 99 % 1016,2 hPa 0,0 l/m 5,6 km/h (1 Bft) W-SW 247 0 min 3,4 C 5,8 C 6,0 km/h (2 Bft)
03.02.2023 17:10 7,2 C 6,6 C 24,2 C 7,1 C 6,8 C 0,0 C 76 % 99 % 1016,2 hPa 0,0 l/m 5,1 km/h (1 Bft) SW 225 0 min 3,3 C 6,1 C 7,2 km/h (2 Bft)
03.02.2023 17:15 7,2 C 6,6 C 24,2 C 7,1 C 6,9 C 0,0 C 76 % 99 % 1016,2 hPa 0,0 l/m 5,0 km/h (1 Bft) W 270 0 min 3,3 C 6,2 C 8,2 km/h (2 Bft)
03.02.2023 17:20 7,3 C 6,6 C 24,2 C 7,0 C 6,4 C 0,0 C 76 % 99 % 1016,8 hPa 0,0 l/m 6,6 km/h (2 Bft) W-SW 247 0 min 3,4 C 5,2 C 14,2 km/h (3 Bft)
03.02.2023 17:25 7,2 C 6,6 C 24,2 C 6,9 C 6,2 C 0,0 C 76 % 99 % 1016,8 hPa 0,0 l/m 6,8 km/h (2 Bft) SW 225 0 min 3,3 C 4,9 C 5,3 km/h (1 Bft)
03.02.2023 17:30 7,2 C 6,6 C 24,2 C 6,9 C 6,4 C 0,0 C 76 % 99 % 1016,8 hPa 0,0 l/m 5,8 km/h (2 Bft) N-NW 337 0 min 3,3 C 5,4 C 2,4 km/h (1 Bft)
03.02.2023 17:35 7,1 C 6,6 C 24,2 C 6,9 C 6,6 C 0,0 C 77 % 99 % 1016,8 hPa 0,0 l/m 5,0 km/h (1 Bft) SO 135 0 min 3,3 C 5,9 C 6,1 km/h (2 Bft)
03.02.2023 17:40 7,0 C 6,6 C 24,2 C 6,9 C 6,6 C 0,0 C 77 % 99 % 1016,9 hPa 0,0 l/m 5,1 km/h (1 Bft) SW 225 0 min 3,2 C 5,9 C 6,4 km/h (2 Bft)
03.02.2023 17:45 7,1 C 6,6 C 24,2 C 6,8 C 6,3 C 0,0 C 77 % 99 % 1016,9 hPa 0,0 l/m 6,0 km/h (2 Bft) S-SW 202 0 min 3,3 C 5,2 C 9,3 km/h (2 Bft)
03.02.2023 17:50 7,1 C 6,6 C 24,2 C 6,7 C 5,9 C 0,0 C 76 % 99 % 1016,9 hPa 0,0 l/m 7,2 km/h (2 Bft) S 180 0 min 3,2 C 4,4 C 9,8 km/h (2 Bft)
03.02.2023 17:55 7,1 C 6,6 C 24,2 C 6,8 C 6,1 C 0,0 C 76 % 99 % 1016,9 hPa 0,0 l/m 6,4 km/h (2 Bft) W-SW 247 0 min 3,2 C 4,9 C 3,9 km/h (1 Bft)
03.02.2023 18:00 7,0 C 6,6 C 24,2 C 6,9 C 6,6 C 0,0 C 76 % 99 % 1017,3 hPa 0,0 l/m 4,7 km/h (1 Bft) W-SW 247 0 min 3,1 C 6,0 C 4,0 km/h (1 Bft)
03.02.2023 18:05 6,9 C 6,6 C 24,2 C 6,7 C 6,4 C 0,0 C 76 % 99 % 1017,3 hPa 0,0 l/m 5,1 km/h (1 Bft) SW 225 0 min 3,0 C 5,6 C 7,6 km/h (2 Bft)
03.02.2023 18:10 7,1 C 6,6 C 24,2 C 6,8 C 6,3 C 0,0 C 75 % 99 % 1017,3 hPa 0,0 l/m 5,8 km/h (2 Bft) W-SW 247 0 min 3,0 C 5,3 C 8,4 km/h (2 Bft)
03.02.2023 18:15 7,0 C 6,6 C 24,2 C 6,7 C 6,1 C 0,0 C 75 % 99 % 1017,3 hPa 0,0 l/m 6,4 km/h (2 Bft) NW 315 0 min 2,9 C 4,9 C 8,2 km/h (2 Bft)
03.02.2023 18:20 7,1 C 6,6 C 24,2 C 6,8 C 6,3 C 0,0 C 74 % 99 % 1017,3 hPa 0,0 l/m 6,0 km/h (2 Bft) W 270 0 min 2,8 C 5,2 C 5,1 km/h (1 Bft)
03.02.2023 18:25 7,1 C 6,6 C 24,2 C 6,9 C 6,6 C 0,0 C 74 % 99 % 1017,3 hPa 0,0 l/m 5,0 km/h (1 Bft) W 270 0 min 2,8 C 5,9 C 3,1 km/h (1 Bft)
03.02.2023 18:30 7,1 C 6,6 C 24,2 C 6,9 C 6,4 C 0,0 C 73 % 99 % 1017,3 hPa 0,0 l/m 5,6 km/h (1 Bft) SW 225 0 min 2,6 C 5,5 C 10,5 km/h (2 Bft)
03.02.2023 18:35 7,0 C 6,6 C 24,2 C 6,7 C 6,1 C 0,0 C 73 % 99 % 1017,3 hPa 0,0 l/m 6,8 km/h (2 Bft) S-SW 202 0 min 2,5 C 4,7 C 15,3 km/h (3 Bft)
03.02.2023 18:40 7,1 C 6,6 C 24,2 C 6,8 C 6,1 C 0,0 C 71 % 99 % 1017,3 hPa 0,0 l/m 6,6 km/h (2 Bft) W-SW 247 0 min 2,2 C 4,8 C 14,5 km/h (3 Bft)
03.02.2023 18:45 7,1 C 6,6 C 24,2 C 6,8 C 6,1 C 0,0 C 71 % 99 % 1017,3 hPa 0,0 l/m 6,6 km/h (2 Bft) S 180 0 min 2,2 C 4,8 C 13,8 km/h (3 Bft)
03.02.2023 18:50 7,1 C 6,6 C 24,2 C 6,8 C 6,2 C 0,0 C 70 % 99 % 1017,3 hPa 0,0 l/m 6,3 km/h (2 Bft) W-SW 247 0 min 2,0 C 5,0 C 10,9 km/h (2 Bft)
03.02.2023 18:55 7,1 C 6,6 C 24,2 C 6,8 C 6,2 C 0,0 C 70 % 99 % 1017,3 hPa 0,0 l/m 6,1 km/h (2 Bft) W 270 0 min 2,0 C 5,1 C 10,0 km/h (2 Bft)
03.02.2023 19:00 7,1 C 6,6 C 24,2 C 6,9 C 6,4 C 0,0 C 69 % 99 % 1018,6 hPa 0,0 l/m 5,6 km/h (1 Bft) W-SW 247 0 min 1,8 C 5,5 C 15,8 km/h (3 Bft)
03.02.2023 19:05 6,9 C 6,6 C 24,2 C 6,7 C 6,2 C 0,0 C 69 % 99 % 1018,6 hPa 0,0 l/m 5,8 km/h (2 Bft) W-SW 247 0 min 1,6 C 5,2 C 8,7 km/h (2 Bft)
03.02.2023 19:10 6,9 C 6,6 C 24,2 C 6,5 C 5,7 C 0,0 C 69 % 99 % 1018,6 hPa 0,0 l/m 6,9 km/h (2 Bft) S 180 0 min 1,6 C 4,3 C 3,1 km/h (1 Bft)
03.02.2023 19:15 6,9 C 6,5 C 24,2 C 6,5 C 5,8 C 0,0 C 69 % 99 % 1018,6 hPa 0,0 l/m 6,0 km/h (2 Bft) W 270 0 min 1,6 C 4,6 C 0,0 km/h (0 Bft)
03.02.2023 19:20 6,9 C 6,5 C 24,2 C 6,4 C 5,4 C 0,0 C 68 % 99 % 1018,3 hPa 0,0 l/m 7,1 km/h (2 Bft) S 180 0 min 1,4 C 3,8 C 18,2 km/h (3 Bft)
03.02.2023 19:25 6,9 C 6,5 C 24,2 C 6,5 C 5,2 C 0,0 C 68 % 99 % 1018,3 hPa 0,0 l/m 8,2 km/h (2 Bft) N-NW 337 0 min 1,4 C 3,3 C 4,5 km/h (1 Bft)
03.02.2023 19:30 6,9 C 6,5 C 24,2 C 6,5 C 5,7 C 0,0 C 68 % 99 % 1018,3 hPa 0,0 l/m 6,3 km/h (2 Bft) O-NO 67 0 min 1,4 C 4,4 C 4,8 km/h (1 Bft)
03.02.2023 19:35 6,8 C 6,5 C 24,2 C 6,6 C 6,2 C 0,0 C 68 % 99 % 1018,3 hPa 0,0 l/m 4,7 km/h (1 Bft) W-SW 247 0 min 1,3 C 5,6 C 6,6 km/h (2 Bft)
03.02.2023 19:40 6,7 C 6,5 C 24,2 C 6,5 C 6,0 C 0,0 C 69 % 99 % 1019,5 hPa 0,0 l/m 5,1 km/h (1 Bft) S 180 0 min 1,4 C 5,2 C 4,3 km/h (1 Bft)
03.02.2023 19:45 6,7 C 6,5 C 24,2 C 6,5 C 6,1 C 0,0 C 69 % 99 % 1019,5 hPa 0,0 l/m 5,0 km/h (1 Bft) O-SO 112 0 min 1,4 C 5,3 C 6,3 km/h (2 Bft)
03.02.2023 19:50 6,7 C 6,5 C 24,2 C 6,5 C 6,1 C 0,0 C 69 % 99 % 1019,5 hPa 0,0 l/m 5,0 km/h (1 Bft) NW 315 0 min 1,4 C 5,3 C 9,0 km/h (2 Bft)
03.02.2023 19:55 6,7 C 6,6 C 24,2 C 6,4 C 5,7 C 0,0 C 68 % 99 % 1019,5 hPa 0,0 l/m 6,0 km/h (2 Bft) S-SW 202 0 min 1,2 C 4,5 C 6,3 km/h (2 Bft)
03.02.2023 20:00 6,7 C 6,5 C 24,2 C 6,5 C 5,3 C 0,0 C 68 % 99 % 1019,8 hPa 0,0 l/m 8,2 km/h (2 Bft) SW 225 0 min 1,2 C 3,4 C 13,5 km/h (3 Bft)
03.02.2023 20:05 6,7 C 6,5 C 24,2 C 6,2 C 5,3 C 0,0 C 68 % 99 % 1019,8 hPa 0,0 l/m 8,4 km/h (2 Bft) SW 225 0 min 1,2 C 3,4 C 3,4 km/h (1 Bft)
03.02.2023 20:10 6,6 C 6,6 C 24,2 C 6,2 C 5,4 C 0,0 C 68 % 99 % 1019,8 hPa 0,0 l/m 7,1 km/h (2 Bft) SW 225 0 min 1,1 C 3,8 C 9,8 km/h (2 Bft)
03.02.2023 20:15 6,6 C 6,6 C 24,2 C 6,2 C 5,3 C 0,0 C 68 % 99 % 1019,8 hPa 0,0 l/m 7,6 km/h (2 Bft) SW 225 0 min 1,1 C 3,6 C 10,1 km/h (2 Bft)
03.02.2023 20:20 6,7 C 6,6 C 24,2 C 6,2 C 5,3 C 0,0 C 68 % 99 % 1019,7 hPa 0,0 l/m 7,6 km/h (2 Bft) W-SW 247 0 min 1,2 C 3,6 C 3,1 km/h (1 Bft)
03.02.2023 20:25 6,7 C 6,6 C 24,2 C 6,3 C 5,4 C 0,0 C 68 % 99 % 1019,7 hPa 0,0 l/m 7,2 km/h (2 Bft) SW 225 0 min 1,2 C 3,8 C 9,0 km/h (2 Bft)
03.02.2023 20:30 6,6 C 6,6 C 24,2 C 6,2 C 5,5 C 0,0 C 68 % 99 % 1019,7 hPa 0,0 l/m 6,9 km/h (2 Bft) O-SO 112 0 min 1,1 C 4,0 C 6,8 km/h (2 Bft)
03.02.2023 20:35 6,6 C 6,6 C 24,2 C 6,3 C 5,1 C 0,0 C 68 % 99 % 1019,7 hPa 0,0 l/m 8,7 km/h (2 Bft) SW 225 0 min 1,1 C 3,1 C 12,1 km/h (2 Bft)
03.02.2023 20:40 6,7 C 6,6 C 24,2 C 6,2 C 5,1 C 0,0 C 68 % 99 % 1020,2 hPa 0,0 l/m 9,3 km/h (2 Bft) SW 225 0 min 1,2 C 2,9 C 12,1 km/h (2 Bft)
03.02.2023 20:45 6,6 C 6,6 C 24,2 C 6,3 C 4,9 C 0,0 C 68 % 99 % 1020,2 hPa 0,0 l/m 9,2 km/h (2 Bft) W-SW 247 0 min 1,1 C 2,7 C 10,1 km/h (2 Bft)
03.02.2023 20:50 6,5 C 6,6 C 24,2 C 6,0 C 4,9 C 0,0 C 69 % 99 % 1020,2 hPa 0,0 l/m 8,9 km/h (2 Bft) W-SW 247 0 min 1,2 C 2,8 C 12,4 km/h (3 Bft)
03.02.2023 20:55 6,4 C 6,6 C 24,2 C 6,0 C 4,6 C 0,0 C 70 % 99 % 1020,2 hPa 0,0 l/m 9,3 km/h (2 Bft) W 270 0 min 1,3 C 2,3 C 9,7 km/h (2 Bft)
03.02.2023 21:00 6,4 C 6,6 C 24,2 C 5,9 C 4,0 C 0,0 C 70 % 99 % 1020,1 hPa 0,0 l/m 10,8 km/h (2 Bft) S 180 0 min 1,3 C 1,3 C 10,0 km/h (2 Bft)
03.02.2023 21:05 6,3 C 6,6 C 24,2 C 5,8 C 4,3 C 0,0 C 71 % 99 % 1020,1 hPa 0,0 l/m 9,5 km/h (2 Bft) S-SW 202 0 min 1,4 C 1,9 C 12,4 km/h (3 Bft)
03.02.2023 21:10 6,2 C 6,6 C 24,2 C 5,7 C 4,8 C 0,0 C 72 % 99 % 1020,1 hPa 0,0 l/m 7,1 km/h (2 Bft) SW 225 0 min 1,5 C 3,1 C 16,1 km/h (3 Bft)
03.02.2023 21:15 6,1 C 6,6 C 24,2 C 5,7 C 4,3 C 0,0 C 72 % 99 % 1020,1 hPa 0,0 l/m 7,7 km/h (2 Bft) W-SW 247 0 min 1,4 C 2,4 C 16,3 km/h (3 Bft)
03.02.2023 21:20 6,1 C 6,6 C 24,2 C 5,6 C 4,0 C 0,0 C 72 % 99 % 1020,0 hPa 0,0 l/m 8,7 km/h (2 Bft) S 180 0 min 1,4 C 1,8 C 18,2 km/h (3 Bft)
03.02.2023 21:25 6,0 C 6,6 C 24,2 C 5,4 C 4,1 C 0,0 C 73 % 99 % 1020,0 hPa 0,0 l/m 7,4 km/h (2 Bft) W-SW 247 0 min 1,5 C 2,2 C 4,3 km/h (1 Bft)
03.02.2023 21:30 5,9 C 6,6 C 24,2 C 5,2 C 3,7 C 0,0 C 74 % 99 % 1020,0 hPa 0,0 l/m 7,1 km/h (2 Bft) SW 225 0 min 1,6 C 1,9 C 21,7 km/h (4 Bft)
03.02.2023 21:35 5,7 C 6,6 C 24,2 C 5,1 C 3,8 C 0,0 C 75 % 99 % 1020,0 hPa 0,0 l/m 6,6 km/h (2 Bft) W-SW 247 0 min 1,6 C 2,1 C 6,4 km/h (2 Bft)
03.02.2023 21:38 5,7 C 6,6 C 24,2 C 5,1 C 3,8 C 0,0 C 75 % 99 % 1020,0 hPa 0,0 l/m 6,6 km/h (2 Bft) W-SW 247 0 min 1,6 C 2,1 C 6,4 km/h (2 Bft)
03.02.2023 21:40 5,7 C 6,6 C 24,2 C 5,1 C 3,8 C 0,0 C 75 % 99 % 1020,0 hPa 0,0 l/m 6,6 km/h (2 Bft) W-SW 247 0 min 1,6 C 2,1 C 6,4 km/h (2 Bft)
03.02.2023 21:45 5,6 C 6,6 C 24,2 C 5,0 C 2,8 C 0,0 C 76 % 99 % 1020,0 hPa 0,0 l/m 9,5 km/h (2 Bft) W-SW 247 0 min 1,7 C 0,2 C 12,9 km/h (3 Bft)
03.02.2023 21:50 5,5 C 6,6 C 24,2 C 4,8 C 2,7 C 0,0 C 76 % 99 % 1020,0 hPa 0,0 l/m 8,9 km/h (2 Bft) W 270 0 min 1,6 C 0,2 C 8,9 km/h (2 Bft)
03.02.2023 21:55 5,5 C 6,6 C 24,2 C 4,6 C 2,7 C 0,0 C 77 % 99 % 1020,0 hPa 0,0 l/m 8,0 km/h (2 Bft) S-SW 202 0 min 1,8 C 0,4 C 8,9 km/h (2 Bft)
03.02.2023 22:00 5,4 C 6,6 C 24,2 C 4,5 C 2,7 C 0,0 C 78 % 99 % 1020,0 hPa 0,0 l/m 8,0 km/h (2 Bft) W-SW 247 0 min 1,9 C 0,4 C 13,4 km/h (3 Bft)
03.02.2023 22:05 5,3 C 6,6 C 24,2 C 4,5 C 2,9 C 0,0 C 77 % 99 % 1020,0 hPa 0,0 l/m 7,2 km/h (2 Bft) SW 225 0 min 1,6 C 0,9 C 10,0 km/h (2 Bft)
03.02.2023 22:11 5,5 C 6,6 C 24,2 C 4,7 C 3,1 C 0,0 C 78 % 99 % 1020,0 hPa 0,0 l/m 6,8 km/h (2 Bft) N 0 0 min 2,0 C 1,3 C 7,4 km/h (2 Bft)
03.02.2023 22:26 5,6 C 6,6 C 24,2 C 5,1 C 4,1 C 0,0 C 76 % 99 % 1020,6 hPa 0,0 l/m 7,2 km/h (2 Bft) SW 225 0 min 1,7 C 2,3 C 8,5 km/h (2 Bft)
03.02.2023 22:30 5,6 C 6,6 C 24,2 C 5,1 C 4,1 C 0,0 C 76 % 99 % 1020,6 hPa 0,0 l/m 7,2 km/h (2 Bft) SW 225 0 min 1,7 C 2,3 C 8,5 km/h (2 Bft)
03.02.2023 22:35 5,7 C 6,5 C 24,2 C 5,2 C 4,3 C 0,0 C 75 % 99 % 1020,6 hPa 0,0 l/m 7,1 km/h (2 Bft) SW 225 0 min 1,6 C 2,6 C 9,5 km/h (2 Bft)
03.02.2023 22:40 5,8 C 6,5 C 24,2 C 5,3 C 4,4 C 0,0 C 75 % 99 % 1020,6 hPa 0,0 l/m 7,1 km/h (2 Bft) S-SW 202 0 min 1,7 C 2,7 C 7,2 km/h (2 Bft)
03.02.2023 22:45 5,9 C 6,5 C 24,2 C 5,4 C 4,5 C 0,0 C 74 % 99 % 1020,8 hPa 0,0 l/m 6,8 km/h (2 Bft) W-SW 247 0 min 1,6 C 2,9 C 4,8 km/h (1 Bft)
03.02.2023 22:50 5,9 C 6,5 C 24,2 C 5,4 C 4,3 C 0,0 C 74 % 99 % 1020,8 hPa 0,0 l/m 7,2 km/h (2 Bft) W-SW 247 0 min 1,6 C 2,5 C 14,3 km/h (3 Bft)
03.02.2023 22:55 5,9 C 6,5 C 24,2 C 5,4 C 4,3 C 0,0 C 74 % 99 % 1020,8 hPa 0,0 l/m 7,9 km/h (2 Bft) W-SW 247 0 min 1,6 C 2,3 C 11,4 km/h (2 Bft)
03.02.2023 23:00 5,9 C 6,5 C 24,2 C 5,6 C 4,4 C 0,0 C 74 % 99 % 1020,8 hPa 0,0 l/m 8,2 km/h (2 Bft) W-NW 292 0 min 1,6 C 2,4 C 8,5 km/h (2 Bft)
03.02.2023 23:05 6,0 C 6,5 C 24,2 C 5,5 C 4,4 C 0,0 C 74 % 99 % 1021,1 hPa 0,0 l/m 8,2 km/h (2 Bft) SW 225 0 min 1,7 C 2,4 C 5,8 km/h (2 Bft)
03.02.2023 23:10 6,0 C 6,5 C 24,2 C 5,7 C 4,5 C 0,0 C 74 % 99 % 1021,1 hPa 0,0 l/m 7,7 km/h (2 Bft) SW 225 0 min 1,7 C 2,6 C 6,4 km/h (2 Bft)
03.02.2023 23:15 5,9 C 6,5 C 24,2 C 5,4 C 4,4 C 0,0 C 74 % 99 % 1021,1 hPa 0,0 l/m 7,1 km/h (2 Bft) W-SW 247 0 min 1,6 C 2,7 C 7,4 km/h (2 Bft)
03.02.2023 23:20 5,9 C 6,5 C 24,2 C 5,3 C 4,1 C 0,0 C 74 % 99 % 1021,1 hPa 0,0 l/m 7,6 km/h (2 Bft) W-SW 247 0 min 1,6 C 2,2 C 17,5 km/h (3 Bft)
03.02.2023 23:25 5,9 C 6,6 C 24,2 C 5,3 C 3,3 C 0,0 C 76 % 99 % 1020,9 hPa 0,0 l/m 8,5 km/h (2 Bft) W-SW 247 0 min 2,0 C 1,0 C 7,4 km/h (2 Bft)
03.02.2023 23:30 5,6 C 6,6 C 24,2 C 5,0 C 3,2 C 0,0 C 77 % 99 % 1020,9 hPa 0,0 l/m 8,0 km/h (2 Bft) S-SW 202 0 min 1,9 C 1,0 C 10,3 km/h (2 Bft)
03.02.2023 23:35 5,6 C 6,6 C 24,2 C 4,7 C 2,9 C 0,0 C 78 % 99 % 1020,9 hPa 0,0 l/m 7,4 km/h (2 Bft) W-SW 247 0 min 2,1 C 0,8 C 16,3 km/h (3 Bft)
03.02.2023 23:40 5,5 C 6,6 C 24,2 C 4,7 C 3,0 C 0,0 C 78 % 99 % 1020,9 hPa 0,0 l/m 7,2 km/h (2 Bft) W-NW 292 0 min 2,0 C 1,0 C 7,7 km/h (2 Bft)
03.02.2023 23:45 5,5 C 6,6 C 24,2 C 4,6 C 2,9 C 0,0 C 78 % 99 % 1021,1 hPa 0,0 l/m 7,1 km/h (2 Bft) S 180 0 min 2,0 C 0,9 C 2,3 km/h (1 Bft)
03.02.2023 23:50 5,5 C 6,6 C 24,2 C 4,7 C 3,0 C 0,0 C 79 % 99 % 1021,1 hPa 0,0 l/m 6,8 km/h (2 Bft) W-NW 292 0 min 2,2 C 1,1 C 24,1 km/h (4 Bft)
03.02.2023 23:55 5,3 C 6,7 C 24,2 C 4,6 C 3,3 C 0,0 C 80 % 99 % 1021,1 hPa 0,0 l/m 5,6 km/h (1 Bft) S 180 0 min 2,1 C 1,9 C 9,2 km/h (2 Bft)
_ Min-Zeit 01:55 00:00 00:00 01:55 02:05 00:00 19:20 00:00 14:05 - 02:25 - - - 01:55 21:45 00:10
Minimum _ 1,6 C 5,9 C 24,2 C 1,4 C 0,9 C 0,0 C 68 % 99 % 1014,4 hPa - 0,5 km/h (0 Bft) - - - -0,2 C 0,2 C 0,0 km/h (0 Bft)
_ Max-Zeit 11:25 14:20 00:00 15:55 15:55 15:55 02:25 00:00 00:00 00:45 13:45 - - 00:00 13:40 15:55 11:05
Maximum _ 7,7 C 6,9 C 24,2 C 8,0 C 8,0 C 0,6 C 89 % 99 % 1024,1 hPa 0,7 l/m 16,4 km/h
SW (3 Bft)
- - 0 min 5,6 C 8,0 C 30,3 km/h
S (5 Bft)
Durchschnitt _ 5,7 C 6,3 C 24,2 C 5,4 C 4,5 C 0,0 C 83 % 99 % 1018,8 hPa #6,9 l/m 7,2 km/h (2 Bft) SW - #0 min. 2,9 C 3,0 C 10,0 km/h (2 Bft)
2023 www.wetterstation-wechselburg.de